EW0600 Weather Reports


Display with metric or nautical units.
time (UTC)temp
F
wind
direction
speed
MPH
gust
MPH
rain 1hr
in
rain 24hr
in
rain mn
in
humidity
%
barometer
mb
20260905062339 68 68 0.0 1.0 0.00 0.00 0.00 93 1010.4
20260905061610 68 68 0.0 3.0 0.00 0.00 0.00 93 1010.5
20260905061304 69 68 0.0 2.0 0.00 0.00 0.00 93 1010.4
20260905060231 69 81 0.0 0.0 0.00 0.00 0.00 92 1010.4
20260905060003 69 81 0.0 1.0 0.00 0.00 0.00 92 1010.4
20260905055248 69 81 0.0 0.0 0.00 0.00 0.00 92 1010.4
20260905054606 69 81 0.0 6.0 0.00 0.00 0.00 92 1010.2
20260905054305 70 50 1.0 5.0 0.00 0.00 0.00 91 1010.1
20260905053321 70 53 1.0 4.0 0.00 0.00 0.00 91 1010.2
20260905053001 69 73 2.0 4.0 0.00 0.00 0.00 91 1010.2
20260905052247 70 68 0.0 3.0 0.00 0.00 0.00 91 1010.1
20260905051602 70 69 0.0 4.0 0.00 0.00 0.00 91 1010.2
20260905051249 70 353 0.0 3.0 0.00 0.00 0.00 91 1010.1
20260905050003 70 74 1.0 4.0 0.00 0.00 0.00 90 1010.0
20260905045133 71 58 4.0 7.0 0.00 0.00 0.00 90 1009.9
20260905044616 71 67 6.0 8.0 0.00 0.00 0.00 90 1009.8
20260905043003 71 65 1.0 5.0 0.00 0.00 0.00 89 1010.0
20260905041830 72 58 1.0 4.0 0.00 0.00 0.00 89 1009.8
20260905041609 71 53 2.0 5.0 0.00 0.00 0.00 89 1009.9
20260905040836 72 74 3.0 7.0 0.00 0.00 0.00 88 1009.8
20260905040003 72 64 3.0 8.0 0.00 0.00 0.00 88 1010.0
20260905035848 73 79 4.0 7.0 0.00 0.00 0.00 88 1009.9
20260905034833 73 73 4.0 7.0 0.00 0.00 0.00 88 1009.8
20260905034503 72 68 4.0 8.0 0.00 0.00 0.00 87 1009.9
20260905033833 73 68 5.0 7.0 0.00 0.00 0.00 87 1009.9
20260905033106 73 77 5.0 8.0 0.00 0.00 0.00 87 1009.9
20260905032831 74 70 3.0 7.0 0.00 0.00 0.00 87 1009.9
20260905031819 73 51 1.0 5.0 0.00 0.00 0.00 88 1009.9
20260905031502 73 60 1.0 6.0 0.00 0.00 0.00 88 1009.9
20260905030105 74 74 1.0 4.0 0.00 0.00 0.00 86 1009.6
20260905025724 75 65 1.0 3.0 0.00 0.00 0.00 86 1009.5
20260905024503 74 75 2.0 3.0 0.00 0.00 0.00 86 1009.4
20260905023519 75 86 1.0 2.0 0.00 0.00 0.00 86 1009.2
20260905023103 75 86 2.0 3.0 0.00 0.00 0.00 87 1009.1
20260905021505 75 81 1.0 3.0 0.00 0.00 0.00 86 1008.9
20260905021352 75 78 0.0 2.0 0.00 0.00 0.00 86 1008.8
20260905020331 76 70 0.0 2.0 0.00 0.00 0.00 85 1008.8
20260905015309 76 52 0.0 0.0 0.00 0.00 0.00 85 1008.6
20260905014502 76 65 0.0 2.0 0.00 0.00 0.00 85 1008.6
20260905014332 76 65 0.0 1.0 0.00 0.00 0.00 85 1008.5
20260905013259 77 50 0.0 0.0 0.00 0.00 0.00 83 1008.4
20260905013103 77 50 0.0 3.0 0.00 0.00 0.00 83 1008.5
20260905012300 78 41 0.0 3.0 0.00 0.00 0.00 82 1008.3
20260905011502 78 55 0.0 4.0 0.00 0.00 0.00 82 1008.4
20260905011233 79 39 0.0 3.0 0.00 0.00 0.00 82 1008.3
20260905010248 79 39 0.0 1.0 0.00 0.00 0.00 82 1008.3
20260905010107 79 26 0.0 3.0 0.00 0.00 0.00 82 1008.4
20260905004502 80 2 1.0 4.0 0.00 0.00 0.00 80 1008.2
20260905004132 81 1 0.0 3.0 0.00 0.00 0.00 79 1008.1
20260905003102 81 3 1.0 4.0 0.00 0.00 0.00 77 1008.1
20260905003057 82 2 0.0 3.0 0.00 0.00 0.00 77 1008.0
20260905002031 83 23 0.0 2.0 0.00 0.00 0.00 76 1008.1
20260905001507 83 36 1.0 3.0 0.00 0.00 0.00 75 1008.2
20260905001034 84 347 0.0 2.0 0.00 0.00 0.00 74 1008.0
20260905000041 84 353 0.0 2.0 0.00 0.00 0.00 74 1008.0
20260904234502 84 50 1.0 4.0 0.00 0.00 0.00 74 1008.1
20260904233102 84 41 0.0 5.0 0.00 0.00 0.00 74 1007.9
20260904232735 85 42 1.0 4.0 0.00 0.00 0.00 73 1007.8
20260904231729 85 28 1.0 6.0 0.00 0.00 0.00 73 1007.8
20260904231502 85 41 2.0 6.0 0.00 0.00 0.00 72 1007.9
20260904230719 85 33 2.0 9.0 0.00 0.00 0.00 72 1007.8
20260904230129 85 336 2.0 10.0 0.00 0.00 0.00 73 1007.7
20260904225721 85 13 4.0 9.0 0.00 0.00 0.00 75 1007.6
20260904224739 85 346 4.0 7.0 0.00 0.00 0.00 75 1007.6
20260904224502 84 345 2.0 8.0 0.00 0.00 0.00 75 1007.7
20260904223717 85 8 4.0 9.0 0.00 0.00 0.00 74 1007.6
20260904223107 84 347 5.0 10.0 0.00 0.00 0.00 75 1007.6
20260904221603 85 338 3.0 8.0 0.00 0.00 0.00 76 1007.5
20260904221502 85 352 6.0 8.0 0.00 0.00 0.00 75 1007.6
20260904215423 85 338 4.0 8.0 0.00 0.00 0.00 77 1007.2
20260904214510 86 30 1.0 7.0 0.00 0.00 0.00 74 1007.1
20260904213104 85 64 2.0 10.0 0.00 0.00 0.00 75 1007.2
20260904212134 85 327 2.0 9.0 0.00 0.00 0.00 76 1007.2
20260904211502 85 26 2.0 9.0 0.00 0.00 0.00 76 1007.3
20260904210108 85 38 2.0 7.0 0.00 0.00 0.00 79 1007.2
20260904205932 86 342 2.0 6.0 0.00 0.00 0.00 78 1007.2
20260904204858 85 48 1.0 4.0 0.00 0.00 0.00 77 1007.3
20260904204505 85 39 2.0 8.0 0.00 0.00 0.00 77 1007.4
20260904203824 85 23 3.0 7.0 0.00 0.00 0.00 79 1007.3
20260904203109 84 7 4.0 8.0 0.00 0.00 0.00 78 1007.3
20260904201638 85 339 2.0 7.0 0.00 0.00 0.00 80 1007.2
20260904201503 84 37 4.0 8.0 0.00 0.00 0.00 79 1007.3
20260904200625 84 79 2.0 9.0 0.00 0.00 0.00 80 1007.3
20260904200106 83 42 2.0 9.0 0.00 0.00 0.00 82 1007.3
20260904195624 84 34 3.0 9.0 0.00 0.00 0.00 79 1007.2
20260904194503 84 45 3.0 8.0 0.00 0.00 0.00 80 1007.3
20260904193456 84 46 3.0 8.0 0.00 0.00 0.00 81 1007.4
20260904193103 84 25 5.0 9.0 0.00 0.00 0.00 80 1007.3
20260904192505 84 55 3.0 9.0 0.00 0.00 0.00 80 1007.3
20260904191503 83 46 3.0 10.0 0.00 0.00 0.00 80 1007.5
20260904191430 84 5 4.0 9.0 0.00 0.00 0.00 80 1007.4
20260904190435 84 340 3.0 10.0 0.00 0.00 0.00 81 1007.4
20260904190109 84 349 3.0 8.0 0.00 0.00 0.00 82 1007.5
20260904185358 84 18 5.0 10.0 0.00 0.00 0.00 80 1007.4
20260904184503 84 326 4.0 9.0 0.00 0.00 0.00 80 1007.3
20260904184358 84 3 3.0 8.0 0.00 0.00 0.00 80 1007.3
20260904183418 84 70 2.0 8.0 0.00 0.00 0.00 83 1007.3
20260904183115 83 50 4.0 9.0 0.00 0.00 0.00 82 1007.3
20260904182418 84 54 4.0 13.0 0.00 0.00 0.00 85 1007.3
20260904181503 82 325 10.0 15.0 0.00 0.00 0.00 85 1007.4
20260904181418 82 336 8.0 14.0 0.00 0.00 0.00 84 1007.3
20260904180359 82 60 7.0 15.0 0.00 0.00 0.00 84 1007.3
20260904180110 82 354 8.0 16.0 0.00 0.00 0.00 85 1007.3
20260904175421 82 339 8.0 15.0 0.00 0.00 0.00 84 1007.3
20260904174505 82 7 7.0 15.0 0.00 0.30 0.00 85 1007.2
20260904174439 83 345 7.0 14.0 0.00 0.10 0.00 85 1007.2
20260904173411 83 344 8.0 15.0 0.00 0.29 0.00 84 1007.0
20260904173104 83 337 9.0 14.0 0.00 0.30 0.00 84 1007.1
20260904172351 83 30 10.0 15.0 0.00 0.29 0.00 85 1007.0
20260904171503 84 1 10.0 13.0 0.00 0.30 0.00 84 1006.9
20260904171408 85 336 7.0 12.0 0.00 0.29 0.00 82 1006.9
20260904170418 85 318 5.0 10.0 0.00 0.29 0.00 80 1006.8
20260904165425 85 354 5.0 8.0 0.00 0.29 0.00 81 1006.8
20260904164502 85 326 5.0 9.0 0.00 0.43 0.00 80 1006.8
20260904164407 86 23 2.0 7.0 0.00 0.33 0.00 81 1006.7
20260904163345 84 316 3.0 7.0 0.00 0.33 0.00 82 1006.7
20260904163005 84 345 4.0 8.0 0.00 0.43 0.00 81 1006.7
20260904162344 85 23 1.0 6.0 0.00 0.34 0.00 82 1006.7
20260904161603 83 331 1.0 7.0 0.00 0.43 0.00 85 1006.6
20260904161403 83 51 3.0 6.0 0.00 0.41 0.00 84 1006.6
20260904160420 83 320 2.0 5.0 0.00 0.42 0.00 86 1006.5
20260904160002 82 311 2.0 6.0 0.00 0.43 0.00 86 1006.5
20260904155411 82 321 2.0 5.0 0.00 0.42 0.00 85 1006.4
20260904154602 82 275 2.0 4.0 0.00 0.43 0.00 85 1006.5
20260904153003 81 321 1.0 6.0 0.00 0.43 0.00 86 1006.4
20260904152052 81 356 1.0 4.0 0.00 0.42 0.00 86 1006.2
20260904151603 81 328 1.0 5.0 0.00 0.43 0.00 87 1006.1
20260904151045 81 277 0.0 2.0 0.00 0.42 0.00 86 1006.1
20260904150025 81 310 0.0 2.0 0.00 0.42 0.00 86 1006.2
20260904150007 81 309 1.0 3.0 0.00 0.43 0.00 86 1006.2
20260904145035 80 203 0.0 3.0 0.00 0.42 0.00 87 1006.2
20260904144602 80 259 2.0 4.0 0.00 0.43 0.00 88 1006.2
20260904144004 79 285 1.0 4.0 0.00 0.42 0.00 88 1006.1
20260904143016 79 313 1.0 3.0 0.00 0.42 0.00 88 1006.1
20260904143002 79 313 1.0 4.0 0.00 0.43 0.00 88 1006.2
20260904142004 79 276 0.0 2.0 0.00 0.42 0.00 88 1006.1
20260904141603 79 314 1.0 3.0 0.00 0.43 0.00 88 1006.3
20260904141001 80 307 0.0 1.0 0.00 0.42 0.00 86 1006.2
20260904140008 79 1 0.0 0.0 0.00 0.42 0.00 88 1006.1
20260904140002 78 1 0.0 3.0 0.00 0.43 0.00 88 1006.2
20260904135026 78 0 0.0 2.0 0.00 0.42 0.00 89 1006.0
20260904134604 78 316 1.0 2.0 0.00 0.43 0.00 88 1006.2
20260904134036 77 316 0.0 0.0 0.00 0.42 0.00 90 1006.1
20260904133003 76 300 0.0 3.0 0.00 0.43 0.00 91 1006.2
20260904131939 76 132 0.0 0.0 0.00 0.42 0.00 91 1006.1
20260904131605 75 120 0.0 3.0 0.00 0.43 0.00 92 1006.1
20260904130907 74 207 0.0 2.0 0.00 0.42 0.00 93 1005.9
20260904130002 73 338 0.0 4.0 0.00 0.43 0.00 93 1006.0
20260904125843 73 338 1.0 3.0 0.00 0.42 0.00 93 1006.0
20260904124903 73 335 2.0 5.0 0.00 0.42 0.00 93 1005.9
20260904124608 72 336 3.0 6.0 0.00 0.43 0.00 93 1005.9
20260904123857 73 341 2.0 5.0 0.00 0.42 0.00 93 1005.8
20260904123007 72 338 3.0 4.0 0.00 0.43 0.00 93 1005.6
20260904122827 73 330 0.0 2.0 0.00 0.42 0.00 93 1005.6
20260904121800 73 262 0.0 0.0 0.00 0.42 0.00 93 1005.5
20260904121603 73 262 0.0 0.0 0.00 0.43 0.00 93 1005.5
20260904120818 73 262 0.0 0.0 0.00 0.42 0.00 94 1005.3
20260904120002 72 262 0.0 1.0 0.00 0.57 0.00 94 1005.4
20260904115827 72 262 0.0 0.0 0.00 0.42 0.00 94 1005.3
20260904114850 73 236 1.0 3.0 0.00 0.42 0.00 94 1005.1
20260904114604 72 205 1.0 4.0 0.00 0.57 0.00 94 1005.1
20260904113900 72 209 2.0 3.0 0.00 0.42 0.00 95 1005.0
20260904113002 72 200 3.0 4.0 0.00 0.57 0.00 95 1005.0
20260904111752 72 155 1.0 3.0 0.00 0.51 0.00 95 1005.1
20260904111602 72 186 0.0 4.0 0.00 0.57 0.00 95 1005.1
20260904110813 72 203 1.0 3.0 0.00 0.58 0.00 95 1005.0
20260904110003 72 174 0.0 2.0 0.00 0.57 0.00 95 1005.1
20260904105755 72 173 0.0 1.0 0.00 0.58 0.00 96 1005.1
20260904104606 72 139 0.0 0.0 0.00 0.57 0.00 97 1005.1
20260904103633 72 139 0.0 0.0 0.00 0.58 0.00 96 1005.1
20260904103003 72 139 0.0 0.0 0.00 0.57 0.00 97 1005.1
20260904102638 72 139 0.0 0.0 0.00 0.58 0.00 97 1005.0
20260904101620 72 139 0.0 0.0 0.00 0.58 0.00 96 1005.0
20260904101610 71 139 0.0 0.0 0.00 0.57 0.00 96 1005.1
20260904100629 72 139 0.0 0.0 0.00 0.58 0.00 96 1004.9
20260904100003 72 139 0.0 0.0 0.00 0.57 0.00 96 1004.9
20260904095641 72 139 0.0 0.0 0.00 0.58 0.00 96 1004.9
20260904094608 72 139 0.0 0.0 0.00 0.58 0.00 96 1004.9
20260904094603 72 139 0.0 0.0 0.00 0.57 0.00 96 1005.0
20260904093614 72 139 0.0 0.0 0.00 0.58 0.00 96 1004.8
20260904093003 72 139 0.0 0.0 0.00 0.57 0.00 96 1004.8
20260904092620 72 139 0.0 0.0 0.00 0.58 0.00 96 1004.7
20260904091620 73 139 0.0 0.0 0.00 0.58 0.00 96 1004.6
20260904091602 72 139 0.0 0.0 0.00 0.57 0.00 96 1004.6
20260904090002 73 139 0.0 1.0 0.00 0.57 0.00 95 1004.5
20260904085509 73 139 0.0 0.0 0.00 0.58 0.00 95 1004.5
20260904084603 73 139 0.0 0.0 0.00 0.57 0.00 94 1004.5
20260904083346 74 139 0.0 0.0 0.00 0.58 0.00 94 1004.3
20260904083004 74 139 0.0 0.0 0.00 0.57 0.00 94 1004.4
20260904082345 74 139 0.0 0.0 0.00 0.58 0.00 94 1004.3
20260904081603 74 139 0.0 0.0 0.00 0.57 0.00 94 1004.3
20260904080237 75 139 0.0 0.0 0.00 0.58 0.00 94 1004.2
20260904080002 74 139 0.0 0.0 0.00 0.57 0.00 93 1004.3
20260904075247 75 139 0.0 0.0 0.00 0.58 0.00 93 1004.2
20260904074602 74 139 0.0 2.0 0.00 0.57 0.00 93 1004.3
20260904074233 75 139 0.0 0.0 0.00 0.58 0.00 93 1004.2
20260904073004 75 157 1.0 3.0 0.00 0.57 0.00 93 1004.2
20260904072127 75 160 0.0 3.0 0.00 0.58 0.00 93 1004.2
20260904071602 75 162 0.0 3.0 0.00 0.57 0.00 93 1004.3
20260904071142 76 144 0.0 3.0 0.00 0.58 0.00 93 1004.3
20260904070107 76 172 1.0 3.0 0.00 0.58 0.00 93 1004.3
20260904070005 75 154 1.0 4.0 0.00 0.57 0.00 93 1004.4
20260904065032 76 142 1.0 3.0 0.00 0.58 0.00 92 1004.3
20260904064602 75 174 1.0 4.0 0.00 0.57 0.00 92 1004.3
20260904064047 76 160 1.0 4.0 0.00 0.58 0.00 92 1004.3
20260904063002 76 159 2.0 5.0 0.00 0.57 0.00 92 1004.4